Year,Month,Day,Hour,Minute,Value (Times are PST for temperature in C)
2018,04,23,00,00,5.60
2018,04,23,00,01,5.60
2018,04,23,00,02,5.60
2018,04,23,00,03,5.50
2018,04,23,00,04,5.50
2018,04,23,00,05,5.50
2018,04,23,00,06,5.50
2018,04,23,00,07,5.50
2018,04,23,00,08,5.50
2018,04,23,00,09,5.50
2018,04,23,00,10,5.50
2018,04,23,00,11,5.40
2018,04,23,00,12,5.40
2018,04,23,00,13,5.40
2018,04,23,00,14,5.40
2018,04,23,00,15,5.40
2018,04,23,00,16,5.40
2018,04,23,00,17,5.30
2018,04,23,00,18,5.30
2018,04,23,00,19,5.30
2018,04,23,00,20,5.30
2018,04,23,00,21,5.30
2018,04,23,00,22,5.20
2018,04,23,00,23,5.20
2018,04,23,00,24,5.20
2018,04,23,00,25,5.10
2018,04,23,00,26,5.10
2018,04,23,00,27,5.10
2018,04,23,00,28,5.10
2018,04,23,00,29,5.10
2018,04,23,00,30,5.10
2018,04,23,00,31,5.10
2018,04,23,00,32,5.10
2018,04,23,00,33,5.10
2018,04,23,00,34,5.10
2018,04,23,00,35,5.10
2018,04,23,00,36,5.10
2018,04,23,00,37,5.10
2018,04,23,00,38,5.10
2018,04,23,00,39,5.10
2018,04,23,00,40,5.10
2018,04,23,00,41,5.00
2018,04,23,00,42,4.90
2018,04,23,00,43,4.90
2018,04,23,00,44,4.90
2018,04,23,00,45,4.90
2018,04,23,00,46,4.90
2018,04,23,00,47,4.90
2018,04,23,00,48,4.90
2018,04,23,00,49,4.90
2018,04,23,00,50,4.90
2018,04,23,00,51,4.80
2018,04,23,00,52,4.80
2018,04,23,00,53,4.80
2018,04,23,00,54,4.80
2018,04,23,00,55,4.70
2018,04,23,00,56,4.70
2018,04,23,00,57,4.70
2018,04,23,00,58,4.70
2018,04,23,00,59,4.60
2018,04,23,01,00,4.60
2018,04,23,01,01,4.60
2018,04,23,01,02,4.60
2018,04,23,01,03,4.60
2018,04,23,01,04,4.60
2018,04,23,01,05,4.60
2018,04,23,01,06,4.60
2018,04,23,01,07,4.60
2018,04,23,01,08,4.60
2018,04,23,01,09,4.60
2018,04,23,01,10,4.60
2018,04,23,01,11,4.60
2018,04,23,01,12,4.60
2018,04,23,01,13,4.60
2018,04,23,01,14,4.50
2018,04,23,01,15,4.50
2018,04,23,01,16,4.50
2018,04,23,01,17,4.50
2018,04,23,01,18,4.50
2018,04,23,01,19,4.50
2018,04,23,01,20,4.50
2018,04,23,01,21,4.50
2018,04,23,01,22,4.40
2018,04,23,01,23,4.40
2018,04,23,01,24,4.40
2018,04,23,01,25,4.30
2018,04,23,01,26,4.30
2018,04,23,01,27,4.30
2018,04,23,01,28,4.30
2018,04,23,01,29,4.30
2018,04,23,01,30,4.20
2018,04,23,01,31,4.20
2018,04,23,01,32,4.20
2018,04,23,01,33,4.20
2018,04,23,01,34,4.20
2018,04,23,01,35,4.20
2018,04,23,01,36,4.20
2018,04,23,01,37,4.20
2018,04,23,01,38,4.20
2018,04,23,01,39,4.20
2018,04,23,01,40,4.20
2018,04,23,01,41,4.20
2018,04,23,01,42,4.20
2018,04,23,01,43,4.20
2018,04,23,01,44,4.20
2018,04,23,01,45,4.20
2018,04,23,01,46,4.20
2018,04,23,01,47,4.20
2018,04,23,01,48,4.10
2018,04,23,01,49,4.10
2018,04,23,01,50,4.10
2018,04,23,01,51,4.00
2018,04,23,01,52,4.00
2018,04,23,01,53,4.00
2018,04,23,01,54,4.00
2018,04,23,01,55,4.00
2018,04,23,01,56,3.90
2018,04,23,01,57,3.90
2018,04,23,01,58,3.90
2018,04,23,01,59,3.80
2018,04,23,02,00,3.80
2018,04,23,02,01,3.80
2018,04,23,02,02,3.80
2018,04,23,02,03,3.80
2018,04,23,02,04,3.80
2018,04,23,02,05,3.80
2018,04,23,02,06,3.80
2018,04,23,02,07,3.80
2018,04,23,02,08,3.80
2018,04,23,02,09,3.80
2018,04,23,02,10,3.70
2018,04,23,02,11,3.70
2018,04,23,02,12,3.70
2018,04,23,02,13,3.70
2018,04,23,02,14,3.70
2018,04,23,02,15,3.70
2018,04,23,02,16,3.70
2018,04,23,02,17,3.70
2018,04,23,02,18,3.70
2018,04,23,02,19,3.70
2018,04,23,02,20,3.70
2018,04,23,02,21,3.70
2018,04,23,02,22,3.60
2018,04,23,02,23,3.60
2018,04,23,02,24,3.60
2018,04,23,02,25,3.60
2018,04,23,02,26,3.60
2018,04,23,02,27,3.60
2018,04,23,02,28,3.60
2018,04,23,02,29,3.60
2018,04,23,02,30,3.60
2018,04,23,02,31,3.60
2018,04,23,02,32,3.60
2018,04,23,02,33,3.60
2018,04,23,02,34,3.50
2018,04,23,02,35,3.50
2018,04,23,02,36,3.50
2018,04,23,02,37,3.50
2018,04,23,02,38,3.50
2018,04,23,02,39,3.50
2018,04,23,02,40,3.50
2018,04,23,02,41,3.50
2018,04,23,02,42,3.50
2018,04,23,02,43,3.50
2018,04,23,02,44,3.50
2018,04,23,02,45,3.50
2018,04,23,02,46,3.50
2018,04,23,02,47,3.40
2018,04,23,02,48,3.40
2018,04,23,02,49,3.40
2018,04,23,02,50,3.40
2018,04,23,02,51,3.40
2018,04,23,02,52,3.40
2018,04,23,02,53,3.40
2018,04,23,02,54,3.30
2018,04,23,02,55,3.30
2018,04,23,02,56,3.30
2018,04,23,02,57,3.30
2018,04,23,02,58,3.30
2018,04,23,02,59,3.30
2018,04,23,03,00,3.30
2018,04,23,03,01,3.30
2018,04,23,03,02,3.30
2018,04,23,03,03,3.30
2018,04,23,03,04,3.20
2018,04,23,03,05,3.20
2018,04,23,03,06,3.20
2018,04,23,03,07,3.20
2018,04,23,03,08,3.20
2018,04,23,03,09,3.20
2018,04,23,03,10,3.20
2018,04,23,03,11,3.20
2018,04,23,03,12,3.20
2018,04,23,03,13,3.20
2018,04,23,03,14,3.20
2018,04,23,03,15,3.10
2018,04,23,03,16,3.10
2018,04,23,03,17,3.10
2018,04,23,03,18,3.10
2018,04,23,03,19,3.10
2018,04,23,03,20,3.10
2018,04,23,03,21,3.10
2018,04,23,03,22,3.10
2018,04,23,03,23,3.10
2018,04,23,03,24,3.10
2018,04,23,03,25,3.10
2018,04,23,03,26,3.10
2018,04,23,03,27,3.10
2018,04,23,03,28,3.00
2018,04,23,03,29,2.90
2018,04,23,03,30,2.90
2018,04,23,03,31,2.90
2018,04,23,03,32,2.90
2018,04,23,03,33,2.90
2018,04,23,03,34,2.90
2018,04,23,03,35,2.90
2018,04,23,03,36,2.90
2018,04,23,03,37,2.90
2018,04,23,03,38,2.90
2018,04,23,03,39,2.90
2018,04,23,03,40,2.90
2018,04,23,03,41,2.90
2018,04,23,03,42,2.90
2018,04,23,03,43,2.90
2018,04,23,03,44,2.90
2018,04,23,03,45,2.90
2018,04,23,03,46,2.90
2018,04,23,03,47,2.90
2018,04,23,03,48,2.90
2018,04,23,03,49,2.90
2018,04,23,03,50,2.90
2018,04,23,03,51,2.90
2018,04,23,03,52,2.90
2018,04,23,03,53,2.90
2018,04,23,03,54,2.90
2018,04,23,03,55,2.90
2018,04,23,03,56,2.90
2018,04,23,04,29,2.70
2018,04,23,04,30,2.70
2018,04,23,04,31,2.70
2018,04,23,04,32,2.70
2018,04,23,04,33,2.70
2018,04,23,04,34,2.70
2018,04,23,04,35,2.70
2018,04,23,04,36,2.70
2018,04,23,04,37,2.70
2018,04,23,04,38,2.70
2018,04,23,04,39,2.60
2018,04,23,04,40,2.60
2018,04,23,04,41,2.60
2018,04,23,04,42,2.60
2018,04,23,04,43,2.60
2018,04,23,04,44,2.60
2018,04,23,04,45,2.60
2018,04,23,04,46,2.60
2018,04,23,04,47,2.60
2018,04,23,04,48,2.60
2018,04,23,04,49,2.60
2018,04,23,04,50,2.60
2018,04,23,04,51,2.60
2018,04,23,04,52,2.60
2018,04,23,04,53,2.60
2018,04,23,04,54,2.60
2018,04,23,04,55,2.60
2018,04,23,04,56,2.60
2018,04,23,04,57,2.60
2018,04,23,04,58,2.60
2018,04,23,04,59,2.60
2018,04,23,05,00,2.60
2018,04,23,05,01,2.60
2018,04,23,05,02,2.60
2018,04,23,05,03,2.60
2018,04,23,05,04,2.60
2018,04,23,05,05,2.60
2018,04,23,05,06,2.60
2018,04,23,05,07,2.60
2018,04,23,05,08,2.60
2018,04,23,05,09,2.60
2018,04,23,05,10,2.50
2018,04,23,05,11,2.50
2018,04,23,05,12,2.50
2018,04,23,05,13,2.50
2018,04,23,05,14,2.50
2018,04,23,05,15,2.40
2018,04,23,05,16,2.40
2018,04,23,05,17,2.40
2018,04,23,05,18,2.40
2018,04,23,05,19,2.40
2018,04,23,05,20,2.40
2018,04,23,05,21,2.40
2018,04,23,05,22,2.40
2018,04,23,05,23,2.40
2018,04,23,05,24,2.40
2018,04,23,05,25,2.40
2018,04,23,05,26,2.40
2018,04,23,05,27,2.50
2018,04,23,05,28,2.50
2018,04,23,05,29,2.50
2018,04,23,05,30,2.50
2018,04,23,05,31,2.50
2018,04,23,05,32,2.50
2018,04,23,05,33,2.50
2018,04,23,05,34,2.40
2018,04,23,05,35,2.40
2018,04,23,05,36,2.50
2018,04,23,05,37,2.50
2018,04,23,05,38,2.50
2018,04,23,05,39,2.50
2018,04,23,05,40,2.50
2018,04,23,05,41,2.50
2018,04,23,05,42,2.50
2018,04,23,05,43,2.50
2018,04,23,05,44,2.50
2018,04,23,05,45,2.60
2018,04,23,05,46,2.60
2018,04,23,05,47,2.60
2018,04,23,05,48,2.60
2018,04,23,05,49,2.60
2018,04,23,05,50,2.60
2018,04,23,05,51,2.60
2018,04,23,05,52,2.60
2018,04,23,05,53,2.60
2018,04,23,05,54,2.60
2018,04,23,05,55,2.60
2018,04,23,05,56,2.60
2018,04,23,05,57,2.60
2018,04,23,05,58,2.60
2018,04,23,05,59,2.60
2018,04,23,06,00,2.60
2018,04,23,06,01,2.60
2018,04,23,06,02,2.60
2018,04,23,06,03,2.60
2018,04,23,06,04,2.60
2018,04,23,06,05,2.60
2018,04,23,06,06,2.60
2018,04,23,06,07,2.60
2018,04,23,06,08,2.60
2018,04,23,06,09,2.60
2018,04,23,06,10,2.60
2018,04,23,06,11,2.60
2018,04,23,06,12,2.70
2018,04,23,06,13,2.70
2018,04,23,06,14,2.70
2018,04,23,06,15,2.70
2018,04,23,06,16,2.70
2018,04,23,06,17,2.70
2018,04,23,06,18,2.70
2018,04,23,06,19,2.70
2018,04,23,06,20,2.70
2018,04,23,06,21,2.70
2018,04,23,06,22,2.70
2018,04,23,06,23,2.70
2018,04,23,06,24,2.80
2018,04,23,06,25,2.80
2018,04,23,06,26,2.80
2018,04,23,06,27,2.80
2018,04,23,06,28,2.80
2018,04,23,06,29,2.80
2018,04,23,06,30,2.80
2018,04,23,06,31,2.90
2018,04,23,06,32,2.90
2018,04,23,06,33,2.90
2018,04,23,06,34,2.90
2018,04,23,06,35,2.90
2018,04,23,06,36,2.90
2018,04,23,06,37,3.00
2018,04,23,06,38,3.10
2018,04,23,06,39,3.10
2018,04,23,06,40,3.20
2018,04,23,06,41,3.20
2018,04,23,06,42,3.30
2018,04,23,06,43,3.30
2018,04,23,06,44,3.30
2018,04,23,06,45,3.40
2018,04,23,06,46,3.40
2018,04,23,06,47,3.40
2018,04,23,06,48,3.50
2018,04,23,06,49,3.50
2018,04,23,06,50,3.50
2018,04,23,06,51,3.50
2018,04,23,06,52,3.50
2018,04,23,06,53,3.60
2018,04,23,06,54,3.60
2018,04,23,06,55,3.60
2018,04,23,06,56,3.70
2018,04,23,06,57,3.70
2018,04,23,06,58,3.80
2018,04,23,06,59,3.80
2018,04,23,07,00,3.80
2018,04,23,07,01,3.90
2018,04,23,07,02,4.00
2018,04,23,07,03,4.00
2018,04,23,07,04,4.00
2018,04,23,07,05,4.10
2018,04,23,07,06,4.10
2018,04,23,07,07,4.20
2018,04,23,07,08,4.20
2018,04,23,07,09,4.30
2018,04,23,07,10,4.40
2018,04,23,07,11,4.40
2018,04,23,07,12,4.40
2018,04,23,07,13,4.50
2018,04,23,07,14,4.60
2018,04,23,07,15,4.60
2018,04,23,07,16,4.60
2018,04,23,07,17,4.70
2018,04,23,07,18,4.80
2018,04,23,07,19,4.80
2018,04,23,07,20,4.90
2018,04,23,07,21,5.00
2018,04,23,07,22,5.10
2018,04,23,07,23,5.20
2018,04,23,07,24,5.30
2018,04,23,07,25,5.50
2018,04,23,07,26,5.60
2018,04,23,07,27,5.70
2018,04,23,07,28,5.70
2018,04,23,07,29,5.80
2018,04,23,07,30,5.90
2018,04,23,07,31,6.00
2018,04,23,07,32,6.10
2018,04,23,07,33,6.20
2018,04,23,07,34,6.30
2018,04,23,07,35,6.30
2018,04,23,07,36,6.40
2018,04,23,07,37,6.50
2018,04,23,07,38,6.60
2018,04,23,07,39,6.60
2018,04,23,07,40,6.70
2018,04,23,07,41,6.80
2018,04,23,07,42,6.80
2018,04,23,07,43,6.90
2018,04,23,07,44,7.00
2018,04,23,07,45,7.00
2018,04,23,07,46,7.10
2018,04,23,07,47,7.20
2018,04,23,07,48,7.30
2018,04,23,07,49,7.40
2018,04,23,07,50,7.50
2018,04,23,07,51,7.60
2018,04,23,07,52,7.70
2018,04,23,07,53,7.80
2018,04,23,07,54,7.90
2018,04,23,07,55,8.00
2018,04,23,07,56,8.00
2018,04,23,07,57,8.10
2018,04,23,07,58,8.20
2018,04,23,07,59,8.20
2018,04,23,08,00,8.20
2018,04,23,08,01,8.20
2018,04,23,08,02,8.30
2018,04,23,08,03,8.30
2018,04,23,08,04,8.40
2018,04,23,08,05,8.40
2018,04,23,08,06,8.50
2018,04,23,08,07,8.60
2018,04,23,08,08,8.70
2018,04,23,08,09,8.70
2018,04,23,08,10,8.80
2018,04,23,08,11,8.90
2018,04,23,08,12,8.90
2018,04,23,08,13,9.00
2018,04,23,08,14,9.10
2018,04,23,08,15,9.20
2018,04,23,08,16,9.20
2018,04,23,08,17,9.30
2018,04,23,08,18,9.30
2018,04,23,08,19,9.40
2018,04,23,08,20,9.40
2018,04,23,08,21,9.50
2018,04,23,08,22,9.60
2018,04,23,08,23,9.60
2018,04,23,08,24,9.70
2018,04,23,08,25,9.70
2018,04,23,08,26,9.80
2018,04,23,08,27,9.90
2018,04,23,08,28,9.90
2018,04,23,08,29,9.90
2018,04,23,08,30,9.90
2018,04,23,08,31,10.00
2018,04,23,08,32,10.10
2018,04,23,08,33,10.20
2018,04,23,08,34,10.20
2018,04,23,08,35,10.30
2018,04,23,08,36,10.30
2018,04,23,08,37,10.30
2018,04,23,08,38,10.40
2018,04,23,08,39,10.40
2018,04,23,08,40,10.40
2018,04,23,08,41,10.40
2018,04,23,08,42,10.40
2018,04,23,08,43,10.50
2018,04,23,08,44,10.60
2018,04,23,08,45,10.60
2018,04,23,08,46,10.60
2018,04,23,08,47,10.60
2018,04,23,08,48,10.60
2018,04,23,08,49,10.70
2018,04,23,08,50,10.80
2018,04,23,08,51,10.80
2018,04,23,08,52,10.80
2018,04,23,08,53,10.90
2018,04,23,08,54,10.90
2018,04,23,08,55,10.90
2018,04,23,08,56,10.90
2018,04,23,08,57,11.00
2018,04,23,08,58,11.10
2018,04,23,08,59,11.10
2018,04,23,09,00,11.10
2018,04,23,09,01,11.10
2018,04,23,09,02,11.10
2018,04,23,09,03,11.20
2018,04,23,09,04,11.20
2018,04,23,09,05,11.30
2018,04,23,09,06,11.30
2018,04,23,09,07,11.40
2018,04,23,09,08,11.40
2018,04,23,09,09,11.40
2018,04,23,09,10,11.50
2018,04,23,09,11,11.60
2018,04,23,09,12,11.60
2018,04,23,09,13,11.60
2018,04,23,09,14,11.70
2018,04,23,09,15,11.80
2018,04,23,09,16,11.80
2018,04,23,09,17,11.80
2018,04,23,09,18,11.90
2018,04,23,09,19,11.90
2018,04,23,09,20,12.00
2018,04,23,09,21,12.00
2018,04,23,09,22,12.10
2018,04,23,09,23,12.10
2018,04,23,09,24,12.20
2018,04,23,09,25,12.20
2018,04,23,09,26,12.20
2018,04,23,09,27,12.20
2018,04,23,09,28,12.20
2018,04,23,09,29,12.20
2018,04,23,09,30,12.30
2018,04,23,09,31,12.30
2018,04,23,09,32,12.30
2018,04,23,09,33,12.30
2018,04,23,09,34,12.30
2018,04,23,09,35,12.40
2018,04,23,09,36,12.40
2018,04,23,09,37,12.50
2018,04,23,09,38,12.50
2018,04,23,09,39,12.50
2018,04,23,09,40,12.60
2018,04,23,09,41,12.60
2018,04,23,09,42,12.70
2018,04,23,09,43,12.70
2018,04,23,09,44,12.70
2018,04,23,09,45,12.80
2018,04,23,09,46,12.80
2018,04,23,09,47,12.80
2018,04,23,09,48,12.90
2018,04,23,09,49,12.90
2018,04,23,09,50,13.00
2018,04,23,09,51,13.10
2018,04,23,09,52,13.10
2018,04,23,09,53,13.10
2018,04,23,09,54,13.20
2018,04,23,09,55,13.20
2018,04,23,09,56,13.20
2018,04,23,09,57,13.20
2018,04,23,09,58,13.30
2018,04,23,09,59,13.30
2018,04,23,10,00,13.30
2018,04,23,10,01,13.30
2018,04,23,10,02,13.30
2018,04,23,10,03,13.30
2018,04,23,10,04,13.30
2018,04,23,10,05,13.40
2018,04,23,10,06,13.50
2018,04,23,10,07,13.50
2018,04,23,10,08,13.60
2018,04,23,10,09,13.60
2018,04,23,10,10,13.60
2018,04,23,10,11,13.60
2018,04,23,10,12,13.60
2018,04,23,10,13,13.60
2018,04,23,10,14,13.60
2018,04,23,10,15,13.70
2018,04,23,10,16,13.70
2018,04,23,10,17,13.70
2018,04,23,10,18,13.70
2018,04,23,10,19,13.70
2018,04,23,10,20,13.70
2018,04,23,10,21,13.60
2018,04,23,10,22,13.60
2018,04,23,10,23,13.60
2018,04,23,10,24,13.60
2018,04,23,10,25,13.60
2018,04,23,10,26,13.60
2018,04,23,10,27,13.70
2018,04,23,10,28,13.70
2018,04,23,10,29,13.60
2018,04,23,10,30,13.60
2018,04,23,10,31,13.60
2018,04,23,10,32,13.70
2018,04,23,10,33,13.70
2018,04,23,10,34,13.70
2018,04,23,10,35,13.70
2018,04,23,10,36,13.70
2018,04,23,10,37,13.70
2018,04,23,10,38,13.70
2018,04,23,10,39,13.70
2018,04,23,10,40,13.80
2018,04,23,10,41,13.80
2018,04,23,10,42,13.90
2018,04,23,10,43,14.00
2018,04,23,10,44,14.00
2018,04,23,10,45,14.00
2018,04,23,10,46,14.10
2018,04,23,10,47,14.10
2018,04,23,10,48,14.20
2018,04,23,10,49,14.30
2018,04,23,10,50,14.40
2018,04,23,10,51,14.50
2018,04,23,10,52,14.50
2018,04,23,10,53,14.60
2018,04,23,10,54,14.60
2018,04,23,10,55,14.50
2018,04,23,10,56,14.50
2018,04,23,10,57,14.60
2018,04,23,10,58,14.60
2018,04,23,10,59,14.60
2018,04,23,11,00,14.60
2018,04,23,11,01,14.60
2018,04,23,11,02,14.60
2018,04,23,11,03,14.60
2018,04,23,11,04,14.70
2018,04,23,11,05,14.70
2018,04,23,11,06,14.60
2018,04,23,11,07,14.60
2018,04,23,11,08,14.60
2018,04,23,11,09,14.50
2018,04,23,11,10,14.40
2018,04,23,11,11,14.30
2018,04,23,11,12,14.20
2018,04,23,11,13,14.20
2018,04,23,11,14,14.20
2018,04,23,11,15,14.20
2018,04,23,11,16,14.20
2018,04,23,11,17,14.30
2018,04,23,11,18,14.30
2018,04,23,11,19,14.40
2018,04,23,11,20,14.40
2018,04,23,11,21,14.40
2018,04,23,11,22,14.50
2018,04,23,11,23,14.50
2018,04,23,11,24,14.40
2018,04,23,11,25,14.50
2018,04,23,11,26,14.50
2018,04,23,11,27,14.50
2018,04,23,11,28,14.50
2018,04,23,11,29,14.50
2018,04,23,11,30,14.50
2018,04,23,11,31,14.60
2018,04,23,11,32,14.60
2018,04,23,11,33,14.70
2018,04,23,11,34,14.70
2018,04,23,11,35,14.70
2018,04,23,11,36,14.70
2018,04,23,11,37,14.80
2018,04,23,11,38,14.80
2018,04,23,11,39,14.80
2018,04,23,11,40,14.80
2018,04,23,11,41,14.80
2018,04,23,11,42,14.80
2018,04,23,11,43,14.80
2018,04,23,11,44,14.80
2018,04,23,11,45,14.80
2018,04,23,11,46,14.80
2018,04,23,11,47,14.80
2018,04,23,11,48,14.90
2018,04,23,11,49,15.00
2018,04,23,11,50,15.10
2018,04,23,11,51,15.10
2018,04,23,11,52,15.10
2018,04,23,11,53,15.10
2018,04,23,11,54,15.10
2018,04,23,11,55,15.20
2018,04,23,11,56,15.20
2018,04,23,11,57,15.30
2018,04,23,11,58,15.30
2018,04,23,11,59,15.30
2018,04,23,12,00,15.30
2018,04,23,12,01,15.30
2018,04,23,12,02,15.30
2018,04,23,12,03,15.30
2018,04,23,12,04,15.30
2018,04,23,12,05,15.40
2018,04,23,12,06,15.30
2018,04,23,12,07,15.20
2018,04,23,12,08,15.20
2018,04,23,12,09,15.10
2018,04,23,12,10,15.10
2018,04,23,12,11,15.10
2018,04,23,12,12,15.20
2018,04,23,12,13,15.20
2018,04,23,12,14,15.30
2018,04,23,12,15,15.30
2018,04,23,12,16,15.40
2018,04,23,12,17,15.40
2018,04,23,12,18,15.50
2018,04,23,12,19,15.60
2018,04,23,12,20,15.70
2018,04,23,12,21,15.80
2018,04,23,12,22,16.00
2018,04,23,12,23,16.10
2018,04,23,12,24,16.20
2018,04,23,12,25,16.30
2018,04,23,12,26,16.40
2018,04,23,12,27,16.50
2018,04,23,12,28,16.70
2018,04,23,12,29,16.70
2018,04,23,12,30,16.70
2018,04,23,12,31,16.70
2018,04,23,12,32,16.70
2018,04,23,12,33,16.70
2018,04,23,12,34,16.70
2018,04,23,12,35,16.70
2018,04,23,12,36,16.60
2018,04,23,12,37,16.50
2018,04,23,12,38,16.40
2018,04,23,12,39,16.40
2018,04,23,12,40,16.30
2018,04,23,12,41,16.30
2018,04,23,12,42,16.40
2018,04,23,12,43,16.40
2018,04,23,12,44,16.50
2018,04,23,12,45,16.60
2018,04,23,12,46,16.70
2018,04,23,12,47,16.70
2018,04,23,12,48,16.70
2018,04,23,12,49,16.80
2018,04,23,12,50,16.80
2018,04,23,12,51,16.80
2018,04,23,12,52,16.70
2018,04,23,12,53,16.80
2018,04,23,12,54,16.90
2018,04,23,12,55,16.90
2018,04,23,12,56,17.00
2018,04,23,12,57,17.10
2018,04,23,12,58,17.00
2018,04,23,12,59,16.90
2018,04,23,13,00,16.90
2018,04,23,13,01,16.90
2018,04,23,13,02,16.90
2018,04,23,13,03,16.80
2018,04,23,13,04,16.80
2018,04,23,13,05,16.90
2018,04,23,13,06,17.00
2018,04,23,13,07,17.10
2018,04,23,13,08,17.20
2018,04,23,13,09,17.20
2018,04,23,13,10,17.30
2018,04,23,13,11,17.30
2018,04,23,13,12,17.30
2018,04,23,13,13,17.40
2018,04,23,13,14,17.40
2018,04,23,13,15,17.30
2018,04,23,13,16,17.30
2018,04,23,13,17,17.30
2018,04,23,13,18,17.30
2018,04,23,13,19,17.30
2018,04,23,13,20,17.40
2018,04,23,13,21,17.40
2018,04,23,13,22,17.40
2018,04,23,13,23,17.30
2018,04,23,13,24,17.20
2018,04,23,13,25,17.20
2018,04,23,13,26,17.10
2018,04,23,13,27,17.00
2018,04,23,13,28,16.90
2018,04,23,13,29,16.90
2018,04,23,13,30,16.90
2018,04,23,13,31,16.80
2018,04,23,13,32,16.80
2018,04,23,13,33,16.70
2018,04,23,13,34,16.70
2018,04,23,13,35,16.70
2018,04,23,13,36,16.70
2018,04,23,13,37,16.70
2018,04,23,13,38,16.70
2018,04,23,13,39,16.70
2018,04,23,13,40,16.70
2018,04,23,13,41,16.70
2018,04,23,13,42,16.70
2018,04,23,13,43,16.70
2018,04,23,13,44,16.70
2018,04,23,13,45,16.80
2018,04,23,13,46,16.80
2018,04,23,13,47,16.90
2018,04,23,13,48,16.90
2018,04,23,13,49,16.90
2018,04,23,13,50,16.90
2018,04,23,13,51,17.00
2018,04,23,13,52,17.00
2018,04,23,13,53,17.00
2018,04,23,13,54,17.10
2018,04,23,13,55,17.10
2018,04,23,13,56,17.10
2018,04,23,13,57,17.20
2018,04,23,13,58,17.20
2018,04,23,13,59,17.20
2018,04,23,14,00,17.20
2018,04,23,14,01,17.10
2018,04,23,14,02,17.10
2018,04,23,14,03,17.10
2018,04,23,14,04,17.00
2018,04,23,14,05,17.00
2018,04,23,14,06,17.00
2018,04,23,14,07,17.00
2018,04,23,14,08,17.10
2018,04,23,14,09,17.30
2018,04,23,14,10,17.30
2018,04,23,14,11,17.30
2018,04,23,14,12,17.30
2018,04,23,14,13,17.30
2018,04,23,14,14,17.30
2018,04,23,14,15,17.40
2018,04,23,14,16,17.40
2018,04,23,14,17,17.40
2018,04,23,14,18,17.40
2018,04,23,14,19,17.30
2018,04,23,14,20,17.30
2018,04,23,14,21,17.40
2018,04,23,14,22,17.40
2018,04,23,14,23,17.50
2018,04,23,14,24,17.50
2018,04,23,14,25,17.50
2018,04,23,14,26,17.40
2018,04,23,14,27,17.40
2018,04,23,14,28,17.30
2018,04,23,14,29,17.40
2018,04,23,14,30,17.40
2018,04,23,14,31,17.40
2018,04,23,14,32,17.50
2018,04,23,14,33,17.60
2018,04,23,14,34,17.80
2018,04,23,14,35,17.90
2018,04,23,14,36,17.90
2018,04,23,14,37,17.90
2018,04,23,14,38,17.90
2018,04,23,14,39,17.90
2018,04,23,14,40,17.90
2018,04,23,14,41,17.90
2018,04,23,14,42,18.00
2018,04,23,14,43,18.10
2018,04,23,14,44,18.20
2018,04,23,14,45,18.20
2018,04,23,14,46,18.20
2018,04,23,14,47,18.20
2018,04,23,14,48,18.20
2018,04,23,14,49,18.30
2018,04,23,14,50,18.30
2018,04,23,14,51,18.40
2018,04,23,14,52,18.40
2018,04,23,14,53,18.40
2018,04,23,14,54,18.40
2018,04,23,14,55,18.40
2018,04,23,14,56,18.40
2018,04,23,14,57,18.50
2018,04,23,14,58,18.50
2018,04,23,14,59,18.50
2018,04,23,15,00,18.60
2018,04,23,15,01,18.50
2018,04,23,15,02,18.50
2018,04,23,15,03,18.40
2018,04,23,15,04,18.40
2018,04,23,15,05,18.30
2018,04,23,15,06,18.40
2018,04,23,15,07,18.40
2018,04,23,15,08,18.40
2018,04,23,15,09,18.40
2018,04,23,15,10,18.40
2018,04,23,15,11,18.40
2018,04,23,15,12,18.40
2018,04,23,15,13,18.50
2018,04,23,15,14,18.50
2018,04,23,15,15,18.60
2018,04,23,15,16,18.70
2018,04,23,15,17,18.70
2018,04,23,15,18,18.70
2018,04,23,15,19,18.80
2018,04,23,15,20,18.70
2018,04,23,15,21,18.60
2018,04,23,15,22,18.60
2018,04,23,15,23,18.60
2018,04,23,15,24,18.70
2018,04,23,15,25,18.70
2018,04,23,15,26,18.70
2018,04,23,15,27,18.90
2018,04,23,15,28,18.90
2018,04,23,15,29,18.90
2018,04,23,15,30,19.00
2018,04,23,15,31,19.10
2018,04,23,15,32,19.10
2018,04,23,15,33,19.10
2018,04,23,15,34,19.10
2018,04,23,15,35,19.10
2018,04,23,15,36,19.20
2018,04,23,15,37,19.20
2018,04,23,15,38,19.30
2018,04,23,15,39,19.40
2018,04,23,15,40,19.40
2018,04,23,15,41,19.40
2018,04,23,15,42,19.40
2018,04,23,15,43,19.40
2018,04,23,15,44,19.40
2018,04,23,15,45,19.40
2018,04,23,15,46,19.40
2018,04,23,15,47,19.40
2018,04,23,15,48,19.40
2018,04,23,15,49,19.30
2018,04,23,15,50,19.30
2018,04,23,15,51,19.30
2018,04,23,15,52,19.40
2018,04,23,15,53,19.40
2018,04,23,15,54,19.40
2018,04,23,15,55,19.40
2018,04,23,15,56,19.50
2018,04,23,15,57,19.50
2018,04,23,15,58,19.40
2018,04,23,15,59,19.30
2018,04,23,16,00,19.30
2018,04,23,16,01,19.10
2018,04,23,16,02,19.10
2018,04,23,16,03,19.10
2018,04,23,16,04,19.20
2018,04,23,16,05,19.20
2018,04,23,16,06,19.20
2018,04,23,16,07,19.20
2018,04,23,16,08,19.20
2018,04,23,16,09,19.20
2018,04,23,16,10,19.20
2018,04,23,16,11,19.20
2018,04,23,16,12,19.20
2018,04,23,16,13,19.10
2018,04,23,16,14,19.10
2018,04,23,16,15,19.10
2018,04,23,16,16,19.10
2018,04,23,16,17,18.90
2018,04,23,16,18,18.90
2018,04,23,16,19,19.00
2018,04,23,16,20,19.10
2018,04,23,16,21,19.10
2018,04,23,16,22,19.10
2018,04,23,16,23,19.10
2018,04,23,16,24,19.10
2018,04,23,16,25,19.20
2018,04,23,16,26,19.30
2018,04,23,16,27,19.40
2018,04,23,16,28,19.60
2018,04,23,16,29,19.70
2018,04,23,16,30,19.90
2018,04,23,16,31,20.00
2018,04,23,16,32,20.10
2018,04,23,16,33,20.20
2018,04,23,16,34,20.20
2018,04,23,16,35,20.20
2018,04,23,16,36,20.20
2018,04,23,16,37,20.30
2018,04,23,16,38,20.30
2018,04,23,16,39,20.30
2018,04,23,16,40,20.40
2018,04,23,16,41,20.50
2018,04,23,16,42,20.60
2018,04,23,16,43,20.60
2018,04,23,16,44,20.60
2018,04,23,16,45,20.70
2018,04,23,16,46,20.70
2018,04,23,16,47,20.70
2018,04,23,16,48,20.60
2018,04,23,16,49,20.60
2018,04,23,16,50,20.60
2018,04,23,16,51,20.60
2018,04,23,16,52,20.60
2018,04,23,16,53,20.50
2018,04,23,16,54,20.50
2018,04,23,16,55,20.40
2018,04,23,16,56,20.30
2018,04,23,16,57,20.20
2018,04,23,16,58,20.20
2018,04,23,16,59,20.20
2018,04,23,17,00,20.20
2018,04,23,17,01,20.20
2018,04,23,17,02,20.20
2018,04,23,17,03,20.20
2018,04,23,17,04,20.30
2018,04,23,17,05,20.30
2018,04,23,17,06,20.40
2018,04,23,17,07,20.40
2018,04,23,17,08,20.40
2018,04,23,17,09,20.40
2018,04,23,17,10,20.40
2018,04,23,17,11,20.40
2018,04,23,17,12,20.40
2018,04,23,17,13,20.30
2018,04,23,17,14,20.20
2018,04,23,17,15,20.20
2018,04,23,17,16,20.20
2018,04,23,17,17,20.30
2018,04,23,17,18,20.30
2018,04,23,17,19,20.20
2018,04,23,17,20,20.30
2018,04,23,17,21,20.20
2018,04,23,17,22,20.20
2018,04,23,17,23,20.20
2018,04,23,17,24,20.20
2018,04,23,17,25,20.20
2018,04,23,17,26,20.20
2018,04,23,17,27,20.20
2018,04,23,17,28,20.20
2018,04,23,17,29,20.10
2018,04,23,17,30,20.10
2018,04,23,17,31,20.10
2018,04,23,17,32,20.10
2018,04,23,17,33,20.20
2018,04,23,17,34,20.20
2018,04,23,17,35,20.20
2018,04,23,17,36,20.20
2018,04,23,17,37,20.20
2018,04,23,17,38,20.20
2018,04,23,17,39,20.20
2018,04,23,17,40,20.20
2018,04,23,17,41,20.20
2018,04,23,17,42,20.10
2018,04,23,17,43,20.00
2018,04,23,17,44,19.90
2018,04,23,17,45,19.90
2018,04,23,17,46,19.90
2018,04,23,17,47,19.90
2018,04,23,17,48,19.90
2018,04,23,17,49,19.90
2018,04,23,17,50,19.90
2018,04,23,17,51,19.90
2018,04,23,17,52,19.90
2018,04,23,17,53,19.90
2018,04,23,17,54,19.90
2018,04,23,17,55,19.90
2018,04,23,17,56,19.90
2018,04,23,17,57,19.90
2018,04,23,17,58,19.90
2018,04,23,17,59,19.90
2018,04,23,18,00,19.90
2018,04,23,18,01,19.90
2018,04,23,18,02,19.90
2018,04,23,18,03,19.90
2018,04,23,18,04,19.90
2018,04,23,18,05,19.80
2018,04,23,18,06,19.70
2018,04,23,18,07,19.70
2018,04,23,18,08,19.60
2018,04,23,18,09,19.60
2018,04,23,18,10,19.60
2018,04,23,18,11,19.50
2018,04,23,18,12,19.40